Regional Weather Roundup
Issued by NWS

Home | Current Version | Previous Version | Graphics & Text | Print | Product List | Glossary On
Versions: 1 2 3 4 5 6 7 8 9 10 11 12 13 14 15 16 17 18 19 20 21 22 23 24 25 26 27 28 29 30 31 32 33 34 35 36 37 38 39 40 41 42 43 44 45 46 47 48 49 50
000
ASUS43 KFSD 021510
RWRSD

WEATHER ROUNDUP FOR SOUTH DAKOTA
NATIONAL WEATHER SERVICE SIOUX FALLS SD
900 AM CST FRI DEC 02 2016

NOTE: "FAIR" INDICATES FEW OR NO CLOUDS BELOW 12,000 FEET WITH NO
SIGNIFICANT WEATHER AND/OR OBSTRUCTIONS TO VISIBILITY.


SDZ001>005-009-010-012>017-021600-
NORTHWEST AND NORTH CENTRAL SOUTH DAKOTA

CITY           SKY/WX    TMP DP  RH WIND       PRES   REMARKS
BUFFALO          N/A     24  22  91 W5        30.09R WCI  18
FAITH            N/A     24  24 100 CALM      30.18R
MOBRIDGE       CLOUDY    29  23  78 NE5       30.20R HAZE    WCI  24
$$

SDZ012>016-024>037-041>051-057-063-072>074-021600-
SOUTHWEST AND SOUTH CENTRAL SOUTH DAKOTA

CITY           SKY/WX    TMP DP  RH WIND       PRES   REMARKS
RAPID CTY ARPT MOCLDY    24  19  81 NW3       30.16R
PIERRE         CLOUDY    28  27  96 CALM      30.22R
CUSTER         CLOUDY    25  17  72 NW3       30.10R
ELLSWORTH AFB  DRIZZLE   27  21  80 W5        30.15  WCI  21
PHILIP         CLOUDY    21  20  96 CALM      30.20R
PINE RIDGE     CLEAR     13  11  92 CALM      30.18R
SPEARFISH      MOCLDY    27  19  74 W6        30.15R WCI  20
WINNER         CLOUDY    27  24  89 W5        30.23R WCI  22
$$

SDZ004>011-016>023-039-040-021600-
NORTHEAST SOUTH DAKOTA

CITY           SKY/WX    TMP DP  RH WIND       PRES   REMARKS
ABERDEEN       CLOUDY    28  20  71 N7        30.25R WCI  21
WATERTOWN      CLOUDY    26  23  88 N7        30.20R WCI  18
BROOKINGS      CLOUDY    27  25  92 CALM      30.21R
SISSETON         N/A     28  22  78 N7        30.23R WCI  21
$$

SDZ017-020-022-023-036>040-048>070-021600-
SOUTHEAST SOUTH DAKOTA

CITY           SKY/WX    TMP DP  RH WIND       PRES   REMARKS
SIOUX FALLS    CLOUDY    31  28  89 N5        30.22R WCI  26
HURON          CLOUDY    29  25  85 N8        30.25R WCI  21
CHAMBERLAIN    CLOUDY    31  30  96 NW3       30.23R
MITCHELL       CLOUDY    30  29  96 N3        30.25R
YANKTON        CLOUDY    34  30  86 NW7       30.23R WCI  28
$$

ABBREVIATIONS USED IN REMARKS
   TC - TEMPERATURE IN CELSIUS
  WCI - WIND CHILL INDEX
   HX - HEAT INDEX
  VSB - VISIBILITY





USA.gov is the U.S. government's official web portal to all federal, state and local government web resources and services.